Regional Weather Roundup
Issued by NWS

Home | Current Version | Previous Version | Graphics & Text | Print | Product List | Glossary On
Versions: 1 2 3 4 5 6 7 8 9 10 11 12 13 14 15 16 17 18 19 20 21 22 23 24 25 26 27 28 29 30 31 32 33 34 35 36 37 38 39 40 41 42 43 44 45 46 47 48 49 50
000
ASUS45 KTFX 181704
RWRMT
MONTANA HOURLY WEATHER ROUNDUP
NATIONAL WEATHER SERVICE GREAT FALLS MT
1104 AM MDT THU SEP 18 2014

NOTE: "FAIR" INDICATES FEW OR NO CLOUDS BELOW 12000 FEET WITH NO
SIGNIFICANT WEATHER AND/OR OBSTRUCTIONS TO VISIBILITY.

* THESE STATIONS ARE NOT UNDER NWS QUALITY CONTROL. THEY DO NOT
   REPORT WEATHER SUCH AS PRECIPITATION OR FOG.

MTZ001>007-043-181800-
WEST OF THE DIVIDE
CITY           SKY/WX    TMP DP  RH WIND       PRES   REMARKS
KALISPELL      SMOKE     54  50  86 W7        29.75R
MISSOULA       LGT RAIN  55  52  90 VRB3      29.85F
BUTTE          CLOUDY    63  50  63 CALM      29.95R
MULLAN PASS    PTSUNNY   59  39  48 S8        29.90R
* ESSEX        N/A       53  46  77 NW1        N/A
* LINCOLN      N/A       51  42  71 W3         N/A
* LOOKOUT PASS N/A       65  42  43 SE6G14     N/A
* POLSON       N/A       63  51  65 S2         N/A
* RONAN APT    CLOUDY    68  52  57 SE9        N/A
* SEELEY LAKE  N/A       54  43  67 S2G8       N/A
* THOMP F APT  PTCLDY    62  52  70 SW3        N/A
$$

MTZ008-052>055-181800-
SOUTHWEST MONTANA
CITY           SKY/WX    TMP DP  RH WIND       PRES   REMARKS
BOZEMAN        CLOUDY    63  55  75 S8        29.91R
DILLON         PTSUNNY   59  52  78 CALM      29.94S
W YELLOWSTONE  CLOUDY    54  50  86 NW3       30.08R
* THREE FORKS  CLOUDY    61  43  52 N/A        N/A
* BOULDER HILL N/A       57  47  69 S17        N/A
* MONIDA PASS  N/A       64  49  58 S12        N/A
* RAYNOLDS PAS N/A       57  37  47 SE12       N/A
* WHITEHALL    N/A       56  51  83 E3G9       N/A
* WISE RIVER   N/A       55  48  77 W5         N/A
$$

MTZ009>010-012-014-046-048-049-054-181800-
EAST SLOPES AND CENTRAL MONTANA
CITY           SKY/WX    TMP DP  RH WIND       PRES   REMARKS
CUT BANK       CLOUDY    64  45  50 SW8       29.72S
GREAT FALLS    CLOUDY    70  45  41 S22G29    29.75R
HELENA         CLOUDY    64  46  52 W7        29.84R
* CONRAD       CLOUDY    63  54  73 N/A        N/A
* EAST GLACIER N/A       66  40  39 W24G29     N/A
* MONARCH      N/A       64  40  41 N/A        N/A
* PENDROY      N/A       70  45  41 W24G34     N/A
* ROGERS PASS  N/A       65  40  40 SE6G12     N/A
* SAINT MARY   N/A       63  57  81 S6G11      N/A
* SWEET GRASS  N/A       68  37  32 SW16       N/A
$$

MTZ011-013-016-021-035-040-045-047-050-051-181800-
NORTH CENTRAL MONTANA
CITY           SKY/WX    TMP DP  RH WIND       PRES   REMARKS
HAVRE          PTSUNNY   64  54  70 SW8       29.66S
LEWISTOWN      CLOUDY    72  46  40 SW29G37   29.83R
* CHESTER      N/A       58  49  72 N1         N/A
* DENTON       N/A       73  49  43 SW24G34    N/A
* GEYSER       N/A       73  45  37 S19G24     N/A
* JUDITH GAP   N/A       59  55  87 SW21G29    N/A
* LOMA         N/A       65  52  63 W3G9       N/A
$$

MTZ017>020-022>027-061-062-181800-
NORTHEAST MONTANA
CITY           SKY/WX    TMP DP  RH WIND       PRES   REMARKS
GLASGOW        PTSUNNY   70  54  57 S7        29.65S
GLENDIVE       PTSUNNY   72  55  55 S14       29.75R
JORDAN         CLOUDY    73  54  51 SW12      29.68F
SIDNEY         PTCLDY    72  55  55 S12       29.72S
WOLF POINT     PTCLDY    72  54  53 SW3       29.66F
* BEAVER HILL  N/A       75  53  46 S17G22     N/A
* CIRCLE       N/A       74  55  52 SW11G16    N/A
* LINDSAY DVD  N/A       72  54  53 SE9        N/A
* NAVAJO       N/A       69  53  57 SW12       N/A
* SACO         N/A       67  54  63 SE2        N/A
$$

MTZ028>042-056>058-181800-
SOUTHCENTRAL AND SOUTHEAST MONTANA
CITY           SKY/WX    TMP DP  RH WIND       PRES   REMARKS
BAKER          PTSUNNY   81  55  41 S9        29.78S HI  81
BILLINGS       LGT RAIN  66  54  65 W15       29.89R
LIVINGSTON     LGT RAIN  63  55  75 SW7       29.92F
MILES CITY     CLOUDY    72  52  49 S6        29.75S
* LAUREL APT   CLOUDY    64  52  65 W8         N/A
* ROUNDUP APT  CLOUDY    61  48  62 S22G29     N/A
* ALZADA       N/A       76  53  45 E6         N/A
* HYSHAM       N/A       66  47  51 W6G11      N/A
* LAME DEER    N/A       79  50  36 S2G7       N/A
* REED POINT   N/A       58  55  90 SE4        N/A
* ROSCOE HILL  N/A       63  38  40 NE13       N/A
$$

REGIONAL REPORTS...DAKOTAS
CITY           SKY/WX    TMP DP  RH WIND       PRES   REMARKS
WILLISTON      PTCLDY    72  54  53 S6        29.70F
DICKINSON      PTCLDY    70  55  59 S16       29.76F
BEACH          N/A       70  57  64 S15       29.76S
CROSBY         SUNNY     68  54  61 S14G24    29.67F
TIOGA          SUNNY     66  55  68 S16G22    29.75S
WATFORD CITY   SUNNY     72  54  53 S14       29.70F
BISMARCK       SUNNY     73  57  57 SE16      29.83F
GRAND FORKS    CLOUDY    55  52  90 S13       29.96F
FARGO          SUNNY     61  54  78 S13       29.97F
RAPID CITY     SUNNY     73  55  53 SE5       29.85F
$$

REGIONAL REPORTS...WYOMING/IDAHO/WASHINGTON
CITY           SKY/WX    TMP DP  RH WIND       PRES   REMARKS
GILLETTE       PTCLDY    82  48  31 S13G20    29.87F
SHERIDAN       PTSUNNY   72  54  53 N3        29.85R
CODY           CLOUDY   N/A N/A N/A N/A        N/A
YELLOWSTONE LA CLOUDY    54  48  80 W3        30.19R
SALMON         CLOUDY    61  48  62 S3        29.91R
MULLAN PASS    PTSUNNY   59  39  48 S8        29.90S
SAND POINT     PTSUNNY   64  50  61 SW5       29.73R
SPOKANE        CLOUDY    63  45  52 S9        29.75R

$$




USA.gov is the U.S. government's official web portal to all federal, state and local government web resources and services.